Time,TemperatureF,DewpointF,PressureIn,WindDirection,WindDirectionDegrees,WindSpeedMPH,WindSpeedGustMPH,Humidity,HourlyPrecipIn,Conditions,Clouds,dailyrainin,SoftwareType,DateUTC
2013-08-19 00:22:00,63.0,63.0,-100.00,East,95,0.0,0.0,99,-99.99,,,-99.99,,2013-08-19 05:22:00,
2013-08-19 00:52:00,63.0,63.0,-100.00,ENE,65,0.0,0.0,99,-99.99,,,-99.99,,2013-08-19 05:52:00,
2013-08-19 01:21:00,62.0,62.0,-100.00,ENE,75,0.0,0.0,99,-99.99,,,-99.99,,2013-08-19 06:21:00,
2013-08-19 01:52:00,62.0,61.0,-100.00,NNE,25,0.0,0.0,99,-99.99,,,-99.99,,2013-08-19 06:52:00,
2013-08-19 02:21:00,61.0,61.0,-100.00,East,85,0.0,0.0,99,-99.99,,,-99.99,,2013-08-19 07:21:00,
2013-08-19 02:52:00,60.0,60.0,-100.00,NNE,30,0.0,0.0,99,-99.99,,,-99.99,,2013-08-19 07:52:00,
2013-08-19 03:21:00,60.0,60.0,-100.00,NNE,30,0.0,0.0,99,-99.99,,,-99.99,,2013-08-19 08:21:00,
2013-08-19 03:52:00,60.0,59.0,-100.00,NE,45,0.0,0.0,99,-99.99,,,-99.99,,2013-08-19 08:52:00,
2013-08-19 04:22:00,59.0,59.0,-100.00,East,90,0.0,0.0,99,-99.99,,,-99.99,,2013-08-19 09:22:00,
2013-08-19 04:53:00,59.0,59.0,-100.00,NE,40,0.0,0.0,99,-99.99,,,-99.99,,2013-08-19 09:53:00,
2013-08-19 05:23:00,59.0,58.0,-100.00,East,80,0.0,0.0,99,-99.99,,,-99.99,,2013-08-19 10:23:00,
2013-08-19 05:52:00,58.0,58.0,-100.00,NE,55,0.0,0.0,99,-99.99,,,-99.99,,2013-08-19 10:52:00,
2013-08-19 06:22:00,58.0,58.0,-100.00,ESE,110,0.0,0.0,99,-99.99,,,-99.99,,2013-08-19 11:22:00,
2013-08-19 06:52:00,58.0,57.0,-100.00,East,95,0.0,0.0,99,-99.99,,,-99.99,,2013-08-19 11:52:00,
2013-08-19 07:21:00,58.0,58.0,-100.00,East,95,0.0,0.0,99,-99.99,,,-99.99,,2013-08-19 12:21:00,
2013-08-19 07:52:00,59.0,59.0,-100.00,East,90,0.0,0.0,99,-99.99,,,-99.99,,2013-08-19 12:52:00,
2013-08-19 08:22:00,61.0,61.0,-100.00,ESE,110,0.0,0.0,99,-99.99,,,-99.99,,2013-08-19 13:22:00,
2013-08-19 08:52:00,65.0,64.0,-100.00,East,80,0.0,0.0,99,-99.99,,,-99.99,,2013-08-19 13:52:00,
2013-08-19 09:21:00,69.0,69.0,-100.00,NE,45,0.0,0.0,99,-99.99,,,-99.99,,2013-08-19 14:21:00,
2013-08-19 09:52:00,74.0,69.0,-100.00,ENE,75,0.0,0.0,82,-99.99,,,-99.99,,2013-08-19 14:52:00,
2013-08-19 10:22:00,79.0,68.0,-100.00,ENE,60,0.0,0.0,70,-99.99,,,-99.99,,2013-08-19 15:22:00,
2013-08-19 12:30:00,85.0,-99.9,-100.00,SW,235,0.0,0.0,51,-99.99,,,-99.99,,2013-08-19 17:30:00,
2013-08-19 12:57:00,83.0,63.0,-100.00,South,180,0.0,0.0,51,-99.99,,,-99.99,,2013-08-19 17:57:00,
2013-08-19 13:28:00,86.0,65.0,-100.00,SW,215,0.0,0.0,49,-99.99,,,-99.99,,2013-08-19 18:28:00,
2013-08-19 13:50:00,-999.0,-99.9,-100.00,South,180,0.0,0.0,49,-99.99,,,-99.99,,2013-08-19 18:50:00,
2013-08-19 14:00:00,-999.0,-99.9,-100.00,South,180,0.0,0.0,49,-99.99,,,-99.99,,2013-08-19 19:00:00,
2013-08-19 14:30:00,-999.0,-99.9,-100.00,SSW,210,0.0,0.0,51,-99.99,,,-99.99,,2013-08-19 19:30:00,
2013-08-19 14:59:00,85.0,63.0,-100.00,SSW,195,0.0,0.0,49,-99.99,,,-99.99,,2013-08-19 19:59:00,
2013-08-19 15:30:00,84.0,-99.9,-100.00,South,190,0.0,0.0,51,-99.99,,,-99.99,,2013-08-19 20:30:00,
2013-08-19 16:00:00,-999.0,-99.9,-100.00,South,170,0.0,0.0,-999,-99.99,,,-99.99,,2013-08-19 21:00:00,
2013-08-19 16:25:00,84.0,64.0,-100.00,SSE,155,0.0,0.0,51,-99.99,,,-99.99,,2013-08-19 21:25:00,
2013-08-19 16:55:00,84.0,64.0,-100.00,South,185,0.0,0.0,51,-99.99,,,-99.99,,2013-08-19 21:55:00,
2013-08-19 17:25:00,84.0,64.0,-100.00,South,185,0.0,0.0,52,-99.99,,,-99.99,,2013-08-19 22:25:00,
2013-08-19 17:55:00,83.0,65.0,-100.00,SSW,195,0.0,0.0,53,-99.99,,,-99.99,,2013-08-19 22:55:00,
2013-08-19 18:25:00,82.0,64.0,-100.00,SSE,165,0.0,0.0,54,-99.99,,,-99.99,,2013-08-19 23:25:00,
2013-08-19 18:55:00,81.0,65.0,-100.00,South,185,0.0,0.0,59,-99.99,,,-99.99,,2013-08-19 23:55:00,
2013-08-19 19:24:00,80.0,67.0,-100.00,SSE,160,0.0,0.0,65,-99.99,,,-99.99,,2013-08-20 00:24:00,
2013-08-19 19:52:00,79.0,69.0,-100.00,SSE,165,0.0,0.0,72,-99.99,,,-99.99,,2013-08-20 00:52:00,
2013-08-19 20:22:00,78.0,69.0,-100.00,SSE,160,0.0,0.0,75,-99.99,,,-99.99,,2013-08-20 01:22:00,
2013-08-19 20:52:00,75.0,69.0,-100.00,SE,140,0.0,0.0,80,-99.99,,,-99.99,,2013-08-20 01:52:00,
2013-08-19 21:21:00,74.0,69.0,-100.00,SSE,165,0.0,0.0,84,-99.99,,,-99.99,,2013-08-20 02:21:00,
2013-08-19 21:52:00,73.0,70.0,-100.00,South,170,0.0,0.0,90,-99.99,,,-99.99,,2013-08-20 02:52:00,
2013-08-19 22:22:00,71.0,70.0,-100.00,ESE,105,0.0,0.0,95,-99.99,,,-99.99,,2013-08-20 03:22:00,
2013-08-19 22:54:00,69.0,69.0,-100.00,ESE,115,0.0,0.0,99,-99.99,,,-99.99,,2013-08-20 03:54:00,
2013-08-19 23:23:00,68.0,68.0,-100.00,East,85,0.0,0.0,99,-99.99,,,-99.99,,2013-08-20 04:23:00,